国际通讯卫星 14 星 (INTELSAT 14 (IS-14))

导读 | 豆包AI

INTELSAT 14是由国际通信卫星组织(ITSO)所属运营商于2009年11月23日成功发射的商业通信卫星。它定点于地球静止轨道,承载C频段与Ku频段转发器,主要覆盖美洲、欧洲等区域,为广播电视传输、政府通信、企业骨干网络提供稳定服务,是国际卫星通信网络中保障跨区域连接的重要节点,延续了INTELSAT系列卫星全球覆盖的运营定位。

基本信息
目录编号:
36097
目录名称:
INTELSAT 14
国际标识:
2009-064A
轨道中心:
EARTH
卫星名称:
国际通讯卫星 14 星
卫星全名:
国际通讯卫星 14 星 (INTELSAT 14 (IS-14))
卫星状态:
在轨 (已飞行5955 天)
发射日期:
2009-11-23 UTC
国别 :
(ITSO)
星等 :
--
轨道信息
数据来源 国际轨道数据 AOE轨道数据
星历时间 2026-03-13T17:40:39+0800
14小时前
查看轨道信息
2026-03-13T12:00:00+0800
20小时前
查看轨道信息
半长轴 42164.504km 42165.037km
偏心率 0.0002361 0.0002403
轨道倾角 0.015° 0.017°
近地点辐角 253.566° 234.178°
升交点赤经 100.279° 123.155°
平近点角 277.342° 188.457°
近地点 35776.411km 35776.767km
远地点 35796.323km 35797.033km
周期 1436.085分钟 1436.112分钟
每日圈数 1.002726 1.002707
详细信息
卫星平台:
STAR-2
平衡模式:
三轴稳定
覆盖范围:
全球
运营商:
国际卫星通信公司
运营商所在国:
美国
制造商(研发单位):
轨道ATK公司
制造商所在国:
美国
使用方式:
暂无
卫星简介
从1965年4月至1984年3月,国际通信卫星组织发射了5代、6种不同性能的卫星共计35颗,除6颗卫星因运载火箭和远地点发动机故障而发射失败外,其余29颗卫星均被送到了预定的静止轨道位置。1984年8月前后,国际通信卫星组织利用部署在大西洋、太平洋、印度洋上空的15颗国际通信卫星,为遍布世界各地170多个国家或地区提供电话、电传、电报、电视和数据传输等电信业务;该卫星仍在工作。
2D轨道图
3D轨道图
轨道高度分析图
轨道倾角分析图
轨道综合分析图
查看轨道综合分析图